Location: Springfield
(37.2150°N, 93.2980°W)
Time: 21:12:36
(UTC-05:00)

ISS - Visible Passes

Search period start: 17 October 2019 00:00
Search period end: 27 October 2019 00:00
Orbit: 411 x 421 km, 51.6° (Epoch: 17 October)

Date Brightness Start Highest point End Pass type
(mag) Time Alt. Az. Time Alt. Az. Time Alt. Az.
21 Oct -0.7 06:46:51 10° SSE 06:48:50 15° SE 06:50:50 10° E visible
23 Oct -2.7 06:44:55 10° SSW 06:48:09 46° SE 06:51:24 10° ENE visible
24 Oct -1.6 05:56:54 10° S 05:59:41 24° SE 06:02:29 10° ENE visible
25 Oct -0.8 05:11:23 14° SE 05:11:23 14° SE 05:13:02 10° E visible
25 Oct -3.6 06:44:22 10° WSW 06:47:40 54° NW 06:50:59 10° NE visible
26 Oct -3.8 05:58:33 60° SSW 05:59:05 82° SE 06:02:27 10° NE visible
